[[{"header":{"parameterUnit":"m.s-1","parameterCategory":1,"la1":30.2991,"la2":30.254,"lo1":-89.0895,"lo2":-89.0444,"dy":0.0017,"dx":0.0017,"nx":28,"ny":28,"refTime":"2024-08-25T09:00:00:Z","depth":0,"parameterNumber":2,"parameterNumberName":"U-component_of_WINDS"},"data":[0,0,0,0,0,0,0,0,0,0,0,0,0,0,0,0,0,0,0,0,0,0,0,0,0,0,0,0,0,0,0,0,0,0,0,0,0,0,0,0,0,0,0,0,0,0,0,0,0,0,0,0,0,0,0,0,0,0,-1.4264,-1.4264,0,-1.4221,-1.4221,-1.4221,-1.4121,-1.4119,-1.4117,-1.4115,-1.4074,-1.4075,-1.4076,0,0,0,0,0,0,0,0,0,0,0,0,0,-1.4263,-1.4264,-1.4264,-1.4264,-1.4263,-1.4222,-1.4221,-1.422,-1.4122,-1.4119,-1.4117,-1.4114,-1.4074,-1.4075,-1.4076,0,0,0,0,0,0,0,0,0,0,0,0,0,-1.4247,-1.4264,-1.4264,-1.4209,-1.4203,-1.4222,-1.4221,-1.422,-1.4122,-1.4119,-1.4116,-1.4113,-1.4074,-1.4075,-1.4076,-1.4146,0,0,-1.408,-1.4081,0,0,0,0,0,0,0,0,-1.4248,-1.4247,-1.4218,-1.4213,-1.4207,-1.4173,-1.4206,-1.4196,-1.4123,-1.4153,-1.4115,-1.4112,-1.411,-1.4108,-1.4107,-1.4144,-1.4142,-1.408,-1.4081,-1.4082,-1.4082,0,0,0,0,0,0,0,-1.4249,-1.4248,-1.4247,-1.4217,-1.4211,-1.4187,-1.4181,-1.4203,-1.415,-1.415,-1.4143,-1.4139,-1.4107,-1.4106,-1.4105,-1.4142,-1.408,-1.4081,-1.4082,-1.4083,-1.4234,-1.4237,0,0,0,0,0,0,-1.4258,-1.425,-1.4249,-1.4246,-1.422,-1.419,-1.4183,-1.4187,-1.4149,-1.414,-1.4142,-1.4135,-1.4105,-1.4104,-1.4104,-1.4182,-1.4082,-1.4083,-1.4084,-1.4231,-1.4235,-1.4238,0,0,0,0,0,0,-1.4258,-1.4259,-1.425,-1.4246,-1.4243,-1.4193,-1.4198,-1.4188,-1.4187,-1.4143,-1.4133,-1.4151,-1.4103,-1.4102,-1.4136,-1.4179,-1.4083,-1.4084,-1.4227,-1.4232,-1.4236,-1.434,0,0,0,0,0,0,-1.4259,-1.4259,-1.4285,-1.4247,-1.4244,-1.4283,-1.4201,-1.419,-1.4189,-1.418,-1.4149,-1.414,-1.41,-1.4135,-1.4137,-1.4179,-1.4085,-1.4223,-1.4229,-1.4235,-1.4333,-1.4348,-1.4361,0,0,0,0,0,-1.4259,-1.4316,-1.4286,-1.4287,-1.4274,-1.4286,-1.4284,-1.4235,-1.4193,-1.4219,-1.419,-1.4141,-1.4175,-1.4139,-1.4141,-1.4184,-1.422,-1.4227,-1.4234,-1.4326,-1.4345,-1.4361,0,0,0,0,0,0,-1.4361,-1.431,-1.4277,-1.4323,-1.4309,-1.4269,-1.4299,-1.4257,-1.4255,-1.4247,-1.4188,-1.4182,-1.4224,-1.4208,-1.4169,-1.425,-1.4189,-1.4197,-1.4259,-1.4276,-1.429,-1.4293,-1.4087,0,0,0,0,0,-1.4389,-1.4402,-1.4357,-1.4403,-1.4397,-1.435,-1.4353,-1.4317,-1.4301,-1.4295,-1.4268,-1.4255,-1.4262,-1.4269,-1.4273,-1.433,-1.4322,-1.4361,-1.4376,-1.4388,-1.4395,-1.4424,-1.4441,-1.4262,-1.4262,-1.4262,0,0,-1.4447,-1.4421,-1.4432,-1.4422,-1.4407,-1.4423,-1.4345,-1.4365,-1.4376,-1.4298,-1.4328,-1.4309,-1.429,-1.4336,-1.4355,-1.4324,-1.4443,-1.4397,-1.4407,-1.4408,-1.4433,-1.445,-1.4465,-1.4267,-1.4266,-1.4266,0,0,-1.4559,-1.4541,-1.4577,-1.4563,-1.4541,-1.4509,-1.4518,-1.4484,-1.4468,-1.4497,-1.4439,-1.4452,-1.4466,-1.4454,-1.4451,-1.4561,-1.4516,-1.4564,-1.4638,-1.4667,-1.4681,-1.4693,-1.4732,-1.4747,-1.4572,-1.4572,-1.4572,0,-1.4634,-1.4654,-1.4601,-1.4624,-1.4621,-1.4551,-1.4587,-1.4577,-1.4558,-1.4558,-1.4523,-1.4539,-1.4522,-1.4564,-1.4591,-1.4591,-1.4599,-1.4566,-1.4683,-1.4695,-1.4706,-1.4742,-1.4757,-1.4578,-1.4577,-1.4577,-1.4576,0,-1.4747,-1.4761,-1.4793,-1.4775,-1.4777,-1.4806,-1.4759,-1.4767,-1.4731,-1.4704,-1.4735,-1.4712,-1.471,-1.4717,-1.4684,-1.4756,-1.4737,-1.4694,-1.4631,-1.4729,-1.4762,-1.4776,-1.4586,-1.4584,-1.4582,-1.4581,0,0,-1.4921,-1.4874,-1.4887,-1.4878,-1.4849,-1.4859,-1.4887,-1.4884,-1.4892,-1.4882,-1.4903,-1.4917,-1.4876,-1.4872,-1.4837,-1.4863,-1.4951,-1.4816,-1.4815,-1.4841,-1.5028,-1.506,-1.5077,-1.4921,-1.4924,-1.4926,-1.5029,0,-1.5026,-1.5068,-1.5022,-1.5074,-1.5087,-1.5021,-1.5044,-1.503,-1.5005,-1.5013,-1.4986,-1.4996,-1.4943,-1.494,-1.4963,-1.4935,-1.4987,-1.4927,-1.4941,-1.4942,-1.4946,-1.5094,-1.5128,-1.5227,-1.5042,-1.5044,-1.5046,0,-1.5154,-1.5149,-1.5202,-1.5169,-1.5173,-1.5195,-1.5189,-1.5198,-1.518,-1.516,-1.5156,-1.5113,-1.5138,-1.5079,-1.5113,-1.5073,-1.5076,-1.5064,-1.5066,-1.5065,-1.4999,-1.5096,-1.5257,-1.5272,-1.5066,-1.5064,-1.5063,0,-1.5275,-1.5282,-1.5314,-1.5309,-1.5272,-1.5289,-1.5275,-1.5254,-1.5255,-1.5251,-1.5251,-1.525,-1.525,-1.525,-1.5208,-1.5169,-1.5248,-1.5185,-1.5232,-1.5233,-1.5251,-1.525,-1.5414,-1.5255,-1.5255,-1.5254,-1.5254,0,-1.5397,-1.5432,-1.5368,-1.5388,-1.5425,-1.5373,-1.5412,-1.5391,-1.5373,-1.5388,-1.5332,-1.5348,-1.5292,-1.5302,-1.527,-1.5303,-1.5304,-1.5288,-1.5279,-1.5293,-1.5295,-1.5293,-1.5285,-1.5258,-1.5257,-1.5257,-1.5256,0,-1.5538,-1.5497,-1.5527,-1.549,-1.5482,-1.5511,-1.5479,-1.5497,-1.5469,-1.5489,-1.5491,-1.5447,-1.5456,-1.5414,-1.5417,-1.5395,-1.5444,-1.5424,-1.545,-1.5443,-1.5493,-1.5489,-1.5661,-1.5681,-1.551,-1.5512,-1.5513,0,-1.5618,-1.5643,-1.5608,-1.5614,-1.5602,-1.5612,-1.5613,-1.5563,-1.5566,-1.5549,-1.5569,-1.5573,-1.5573,-1.5592,-1.5561,-1.5562,-1.5541,-1.5602,-1.5541,-1.5554,-1.5541,-1.554,-1.5542,-1.5614,-1.5616,-1.5618,-1.5619,0,-1.5764,-1.5742,-1.5745,-1.5741,-1.5744,-1.5739,-1.573,-1.5738,-1.5684,-1.5691,-1.5699,-1.57,-1.5702,-1.5707,-1.5702,-1.5688,-1.5645,-1.5639,-1.5649,-1.5663,-1.5677,-1.5669,-1.5483,-1.5635,-1.5633,-1.5632,-1.5631,-1.563,-1.5876,-1.5895,-1.5873,-1.5879,-1.5867,-1.586,-1.5874,-1.5848,-1.5853,-1.585,-1.5821,-1.5835,-1.5817,-1.5806,-1.5797,-1.5808,-1.5779,-1.5795,-1.5799,-1.5804,-1.5812,-1.5676,-1.5807,-1.5806,-1.5806,-1.5805,-1.5805,0,-1.6018,-1.6001,-1.6006,-1.5995,-1.6,-1.5958,-1.5946,-1.5953,-1.5966,-1.5953,-1.5954,-1.5964,-1.5969,-1.5939,-1.594,-1.5955,-1.5935,-1.5956,-1.5954,-1.5952,-1.5838,-1.5828,-1.5972,-1.5972,-1.5972,-1.5972,-1.5972,-1.5972,-1.6092,-1.6122,-1.6098,-1.6122,-1.6105,-1.6117,-1.6114,-1.6108,-1.6097,-1.611,-1.6114,-1.6094,-1.6074,-1.6073,-1.6076,-1.6067,-1.607,-1.6098,-1.6083,-1.5976,-1.596,-1.5944,-1.5935,-1.61,-1.61,-1.6196,-1.6197,-1.6198]},{"header":{"parameterUnit":"m.s-1","parameterCategory":1,"la1":30.2991,"la2":30.254,"lo1":-89.0895,"lo2":-89.0444,"dy":0.0017,"dx":0.0017,"nx":28,"ny":28,"refTime":"2024-08-25T09:00:00:Z","depth":0,"parameterNumber":3,"parameterNumberName":"V-component_of_WINDS"},"data":[0,0,0,0,0,0,0,0,0,0,0,0,0,0,0,0,0,0,0,0,0,0,0,0,0,0,0,0,0,0,0,0,0,0,0,0,0,0,0,0,0,0,0,0,0,0,0,0,0,0,0,0,0,0,0,0,0,0,-0.004,-0.0041,0,-0.0136,-0.0137,-0.0138,-0.0206,-0.0207,-0.0207,-0.0208,-0.0309,-0.0311,-0.0313,0,0,0,0,0,0,0,0,0,0,0,0,0,0.0081,0.008,-0.004,-0.0041,-0.0043,-0.0136,-0.0137,-0.0138,-0.0206,-0.0207,-0.0207,-0.0208,-0.0308,-0.031,-0.0313,0,0,0,0,0,0,0,0,0,0,0,0,0,0.0011,0.0079,-0.004,-0.0087,-0.0093,-0.0136,-0.0137,-0.0139,-0.0206,-0.0207,-0.0207,-0.0208,-0.0307,-0.031,-0.0313,-0.0318,0,0,-0.0323,-0.0325,0,0,0,0,0,0,0,0,0.0015,0.0007,-0.0079,-0.0084,-0.009,-0.016,-0.0131,-0.0199,-0.0206,-0.0163,-0.0208,-0.0209,-0.0259,-0.0266,-0.0282,-0.0322,-0.0327,-0.0324,-0.0326,-0.0327,-0.0328,0,0,0,0,0,0,0,0.002,0.0011,-0.0078,-0.008,-0.0087,-0.0105,-0.0116,-0.0144,-0.0205,-0.0167,-0.0172,-0.0182,-0.0262,-0.0279,-0.0285,-0.0328,-0.0324,-0.0327,-0.0329,-0.033,-0.0377,-0.0377,0,0,0,0,0,0,0.0033,0.0015,-0.0075,-0.0081,-0.0038,-0.0106,-0.0119,-0.0137,-0.0205,-0.0216,-0.0181,-0.0185,-0.0273,-0.0281,-0.0289,-0.0299,-0.0327,-0.033,-0.0332,-0.0378,-0.0377,-0.0376,0,0,0,0,0,0,0.0036,0.0026,-0.0071,-0.0034,-0.0048,-0.0108,-0.0128,-0.0138,-0.0155,-0.0216,-0.0228,-0.0187,-0.0274,-0.0284,-0.031,-0.0303,-0.0332,-0.0335,-0.0379,-0.0378,-0.0377,-0.0318,0,0,0,0,0,0,0.004,0.0027,0.0026,-0.0034,-0.005,-0.009,-0.0127,-0.014,-0.0161,-0.0166,-0.0225,-0.0235,-0.0275,-0.0305,-0.0313,-0.0308,-0.0337,-0.038,-0.0378,-0.0377,-0.0321,-0.0315,-0.031,0,0,0,0,0,0.0044,0.0046,0.0026,0.0015,-0.0053,-0.0089,-0.0098,-0.0143,-0.016,-0.0162,-0.0201,-0.0234,-0.0302,-0.0307,-0.0317,-0.0313,-0.038,-0.0379,-0.0377,-0.0323,-0.0316,-0.031,0,0,0,0,0,0,0.0106,0.0037,0.0014,-0.0003,-0.004,-0.01,-0.0105,-0.0134,-0.0168,-0.0171,-0.0227,-0.024,-0.026,-0.0289,-0.0292,-0.0321,-0.0345,-0.0346,-0.0301,-0.0295,-0.0289,-0.0282,-0.034,0,0,0,0,0,0.0118,0.0096,0.0035,0.0025,0.0009,-0.0045,-0.0062,-0.0094,-0.0134,-0.015,-0.0191,-0.023,-0.026,-0.0279,-0.031,-0.0325,-0.0339,-0.0327,-0.0322,-0.0317,-0.0317,-0.0327,-0.0323,-0.0371,-0.0371,-0.0371,0,0,0.0142,0.0101,0.009,0.0037,0.0005,-0.0018,-0.0057,-0.008,-0.0098,-0.0154,-0.018,-0.0212,-0.0259,-0.0279,-0.029,-0.0304,-0.0307,-0.0315,-0.0311,-0.0313,-0.0325,-0.0321,-0.0317,-0.037,-0.037,-0.037,0,0,0.0174,0.0141,0.0129,0.0098,0.005,0.0015,0.0012,-0.0044,-0.0067,-0.0094,-0.0136,-0.0159,-0.021,-0.0242,-0.0265,-0.0245,-0.0276,-0.0254,-0.0226,-0.0235,-0.0232,-0.0228,-0.0222,-0.0219,-0.0253,-0.0253,-0.0253,0,0.0209,0.0173,0.0126,0.0106,0.0083,0.0033,0.002,-0.0008,-0.0064,-0.0078,-0.0093,-0.0158,-0.0193,-0.0222,-0.0217,-0.0234,-0.0239,-0.0247,-0.0228,-0.0225,-0.0223,-0.0218,-0.0215,-0.025,-0.025,-0.0251,-0.0251,0,0.0219,0.0194,0.019,0.0139,0.0116,0.01,0.0049,0.0031,0.0002,-0.0032,-0.006,-0.0104,-0.0145,-0.0154,-0.0183,-0.0187,-0.0194,-0.0217,-0.0243,-0.0215,-0.021,-0.0209,-0.0246,-0.0247,-0.0248,-0.0248,0,0,0.0287,0.021,0.0209,0.0185,0.0129,0.0109,0.009,0.005,0.0036,-0.0001,-0.0019,-0.0061,-0.0083,-0.0108,-0.0142,-0.015,-0.0132,-0.0173,-0.0175,-0.0164,-0.0139,-0.0121,-0.0117,-0.0153,-0.0153,-0.0153,-0.0135,0,0.0309,0.0273,0.023,0.0208,0.0185,0.0137,0.012,0.0083,0.0051,0.0026,-0.0011,-0.004,-0.0067,-0.0083,-0.0093,-0.0132,-0.0128,-0.0134,-0.0171,-0.0172,-0.0158,-0.0115,-0.0096,-0.0077,-0.0134,-0.0134,-0.0133,0,0.0331,0.0298,0.0274,0.022,0.0209,0.0195,0.0155,0.0132,0.0089,0.0066,0.0037,0.0002,-0.0022,-0.0045,-0.0078,-0.0082,-0.0099,-0.0121,-0.0121,-0.0127,-0.0151,-0.012,-0.0073,-0.007,-0.0131,-0.0131,-0.0131,0,0.0383,0.0332,0.0311,0.0292,0.0229,0.022,0.0193,0.0149,0.0128,0.0093,0.0079,0.0041,0.0021,-0.0008,-0.0053,-0.0065,-0.0082,-0.0108,-0.0102,-0.0101,-0.0104,-0.0103,-0.0059,-0.0115,-0.0115,-0.0115,-0.0115,0,0.0413,0.04,0.0334,0.0321,0.0305,0.0255,0.024,0.0209,0.0171,0.015,0.0106,0.0087,0.0029,0.0003,-0.0033,-0.0055,-0.0064,-0.0084,-0.0093,-0.008,-0.0078,-0.0093,-0.0095,-0.0114,-0.0114,-0.0115,-0.0115,0,0.0468,0.0423,0.0397,0.0339,0.0324,0.0315,0.0265,0.025,0.0215,0.019,0.0181,0.0126,0.0094,0.0046,-0.0001,-0.0025,-0.0043,-0.0058,-0.0028,-0.0033,-0.0025,-0.0025,0.0011,0.0013,-0.0043,-0.0043,-0.0042,0,0.049,0.0479,0.042,0.0404,0.0379,0.0353,0.0331,0.0281,0.0261,0.0211,0.0202,0.0167,0.0136,0.0086,0.0041,0.0005,-0.0012,0.0003,-0.0018,-0.0004,-0.0012,-0.0011,-0.0012,0.0008,0.0009,0.001,0.001,0,0.0534,0.0512,0.0483,0.0447,0.0423,0.0391,0.0358,0.0347,0.0289,0.0268,0.0235,0.0211,0.0163,0.0128,0.0086,0.0057,0.0024,0.0017,0.0017,0.003,0.0048,0.0038,-0.0014,0.0017,0.0016,0.0015,0.0015,0.0015,0.0572,0.056,0.0517,0.0487,0.0456,0.0426,0.041,0.0373,0.0345,0.0302,0.0274,0.0243,0.0199,0.0139,0.0112,0.0086,0.0072,0.0071,0.0071,0.0071,0.0076,0.0052,0.0078,0.0078,0.0077,0.0077,0.0077,0,0.0614,0.0584,0.0556,0.0511,0.0487,0.0459,0.042,0.0401,0.0374,0.0337,0.0308,0.0269,0.0235,0.0188,0.015,0.0138,0.0122,0.013,0.013,0.0124,0.0091,0.0095,0.0143,0.0143,0.0143,0.0143,0.0143,0.0143,0.0632,0.0611,0.0584,0.0547,0.0516,0.0485,0.0466,0.0437,0.0407,0.0367,0.0339,0.0308,0.0267,0.0225,0.0193,0.0179,0.0167,0.018,0.0162,0.0132,0.0126,0.012,0.0124,0.0178,0.0178,0.0197,0.0197,0.0198]}]]